sat.trackr.live / text

‹ back to catalog

YAOGAN-30 10B

NORAD 48861 · 2021-055B

PAYLOAD ACTIVE UNKNOWN

§ Identity

Operator
Country
PRC
Launch date
2021-06-18
Launch site
XICLF
Launch vehicle
Mass (kg)
RCS (m²)

External: N2YO · Heavens-Above · Gunter

§ Orbital elements

Epoch: 2026-09-20T04:17:56.393952Z

Period
95.80 min
Inclination
34.9959°
Eccentricity
0.0004118
Mean motion
15.03077622 rev/d
Perigee alt
554.6 km
Apogee alt
560.3 km
Semi-major
6,935.5 km
B*
1.1723e-4
RAAN
292.7359°
Arg perigee
204.6680°
Mean anomaly
155.3832°
Rev number
28,747

§ Raw data

YAOGAN-30 10B1 48861U 21055B   26263.17912493  .00001584  00000+0  11723-3 0  99992 48861  34.9959 292.7359 0004118 204.6680 155.3832 15.03077622287473

JSON: /api/v1/satellites/48861 · /tle

For live sub-satellite position, see the globe view (requires WebGL).

§ Visibility from observer

Set your observer location to see the next 7 days of passes ≥ 10°. The values pass through the URL so the page stays shareable.

No JS? Fill the form by hand. The geolocation button needs JavaScript.